Location: Ecklingerode
(51.5036°N, 10.3122°E)
Time: 00:25:52
(UTC+00:00)

NOSS 3-3 (C) - Pass Details

Date: 29 October 2020
Orbit: 825 x 1387 km, 63.4° (Epoch: 22 November)

Event Time Altitude Azimuth Distance (km) Brightness Sun altitude
Rises 18:04:52 0° 213° (SSW) 3,430 7.3 -20.4°
Reaches altitude 10° 18:07:14 10° 211° (SSW) 2,541 6.5 -20.8°
Maximum altitude 18:13:04 70° 129° (SE) 1,016 3.9 -21.7°
Enters shadow 18:16:14 32° 54° (NE) 1,657 4.8 -22.2°
